Retour au catalogue

COSMOS 1275 DEB

ActifPO
NORAD 13483·DEBRIS·🇷🇺 Russia

Lancé Jun 4, 1981 depuis Plesetsk Cosmodrome

Loading…

Prochains Passages (prochaines 24 heures)

TLE

FraisSource: Space-Track

Époque: Sep 14, 2026, 07:33 UTC

1 13483U 81053GD  26257.31460904  .00001697  00000-0  74705-3 0  9994
2 13483  82.9236  14.1391 0010235 177.2886 212.2634 14.22941541260089

Suivez COSMOS 1275 DEB en temps réel avec AllMySat

Download on the App Store